Flag for Norway Weather past 2 weeks in Namsos, Norway

Now
37 °F

Chilly.


Feels Like: 29 °F
Forecast: 35 / 46 °F
Wind: 13 mph from Southeast

Location: Buholmrasa Fyr

Current Time: Mar 27, 2015 at 3:09:59 AM

Latest Report: Mar 27, 2015 at 1:00 AM


Visibility: N/A

Pressure: 29.72 "Hg

Humidity: 66%

Dew point: 27 °F

Location of NamsosLocation

Historic Weather in Namsos — Graph

°F

Namsos temperature yesterday

Maximum temperature yesterday: 37 °F (at 11:00 PM)
Minimum temperature yesterday: 33 °F (at 10:00 AM)
Average temperature yesterday: 35 °F

Past Weeks' High & Low Weather Summary

 TemperatureHumidityPressure
High51 °F (Mar 13, 12:00 PM)97% (Mar 22, 6:00 AM)30.82 "Hg (Mar 22, 6:00 AM)
Low29 °F (Mar 21, 5:00 AM)34% (Mar 16, 12:00 AM)29.00 "Hg (Mar 23, 3:00 PM)
Average41 °F66%30.22 "Hg
* Reported Mar 12 1:00 AM — Mar 27 1:00 AM, Namsos, Weather by CustomWeather, © 2015

Note: Actual official high and low records may vary slightly from our data, if they occured in-between our weather recording intervals... More about our weather records

Advertising

Namsos weather history for previous 24 hours

 ConditionsComfort  
Time TempWeatherWind HumidityBarometerVisibility
1:00 AM
Fri, Mar 27
37 °FChilly.13 mph66%29.72 "HgN/A
12:00 AM37 °FChilly.14 mph65%29.70 "HgN/A
11:00 PM
Thu, Mar 26
37 °FChilly.15 mph66%29.70 "HgN/A
9:00 PM36 °FChilly.17 mph70%29.67 "HgN/A
8:00 PM35 °FChilly.18 mph72%29.67 "HgN/A
7:00 PM35 °FChilly.20 mph71%29.70 "HgN/A
6:00 PM36 °FChilly.17 mph61%29.71 "HgN/A
5:00 PM35 °FChilly.16 mph65%29.75 "HgN/A
4:00 PM36 °FChilly.17 mph55%29.75 "HgN/A
3:00 PM36 °FChilly.17 mph55%29.76 "HgN/A
2:00 PM35 °FChilly.12 mph53%29.82 "HgN/A
1:00 PM35 °FChilly.13 mph52%29.83 "HgN/A
12:00 PM34 °FChilly.16 mph58%29.83 "HgN/A
11:00 AM34 °FChilly.6 mph41%29.90 "HgN/A
10:00 AM33 °FChilly.10 mph44%29.91 "HgN/A
9:00 AM33 °FChilly.15 mph47%29.90 "HgN/A
8:00 AM33 °FChilly.9 mph50%29.93 "HgN/A
7:00 AM33 °FChilly.12 mph49%29.94 "HgN/A
6:00 AM33 °FChilly.10 mph53%29.94 "HgN/A
5:00 AM33 °FChilly.7 mph54%29.96 "HgN/A
4:00 AM34 °FChilly.9 mph53%29.96 "HgN/A
3:00 AM35 °FChilly.8 mph54%29.97 "HgN/A
Weather by CustomWeather, © 2015

See weather overviewHow to use our weather pages